Group_ship,Cruise,JD_GMT,Date_DDMMYYYY,TIME_HH:MM:SS,Lat_dec_degree,Long_dec_degree,xCO2eq_ppm,xCO2a_ppm,Pres_Equi_hPa,Pres_sealevel_hPa,EqTemp_C,SST(TSG)_C,Sal(TSG)_Permil,Water_flow_l/min,Gasflow_IR_ml/min,Temp_IR_C,Pres_IR_hPa,Ship_heading_true_degree,Ship_speed_knot,Wind_dir_rel_degree,Wind_speed_rel_m/s,fCO2W@SST_uatm,Qcflag_water,fCO2a_uatm,Qcflag_air,dfCO2_uatm,Fluoro_ug/l,Wind_speed_true_m/s,Wind_dir_true_degree,Air_temp_C,Oxygen
AOML_Explorer,Ex0510E,66.102,7032005,2:26:46,26.176,-78.76,354.65,-9,1020,1017.12,23.53,23.6,36.708,1.64,77.34,30.82,1020,97,23.5,345,14.93,346.75,2,-9,9,-9,0.37,4.89,33.45,20.28,-9
AOML_Explorer,Ex0510E,66.104,7032005,2:29:19,26.173,-78.741,354.26,-9,1020.01,1017.39,23.53,23.59,36.711,1.64,76.94,30.82,1020.01,103.8,23.8,341,13.9,346.41,2,-9,9,-9,0.39,4.88,23.03,20.2,-9
AOML_Explorer,Ex0510E,66.105,7032005,2:31:52,26.169,-78.724,353.94,-9,1019.91,1017.38,23.53,23.6,36.718,1.63,77.24,30.82,1019.91,107.3,23.9,333,13.9,346.17,2,-9,9,-9,0.43,6.76,15.97,20.18,-9
AOML_Explorer,Ex0510E,66.107,7032005,2:34:25,26.164,-78.706,354.09,-9,1019.87,1017.13,23.53,23.58,36.717,1.62,76.42,30.82,1019.87,107.2,23.9,341,14.93,346.05,2,-9,9,-9,0.4,5.63,33.9,20.21,-9
AOML_Explorer,Ex0510E,66.109,7032005,2:36:58,26.158,-78.688,354.13,-9,1019.91,1017.13,23.51,23.56,36.722,1.63,76.74,30.82,1019.91,107.6,24,342,13.9,345.99,2,-9,9,-9,0.39,4.89,25.52,20.24,-9
AOML_Explorer,Ex0510E,66.111,7032005,2:39:31,26.153,-78.67,354.19,-9,1019.96,1017.4,23.49,23.55,36.721,1.64,76.87,30.82,1019.96,107.3,24.2,336,14.41,346.18,2,-9,9,-9,0.38,6.41,21.42,20.19,-9
AOML_Explorer,Ex0510E,66.113,7032005,2:42:04,26.148,-78.651,353.82,-9,1020.03,1017.39,23.48,23.54,36.731,1.61,77.32,30.82,1020.03,106.9,24.3,339,13.9,346.06,2,-9,9,-9,0.36,5.44,19.9,20.23,-9
AOML_Explorer,Ex0510E,66.114,7032005,2:44:37,26.143,-78.633,353.43,-9,1020.01,1017.39,23.47,23.51,36.741,1.63,77.23,30.82,1020.01,106.8,24.2,338,13.9,345.25,2,-9,9,-9,0.39,5.6,19.51,20.28,-9
AOML_Explorer,Ex0510E,66.116,7032005,2:47:10,26.138,-78.615,353.29,-9,1020.07,1017.38,23.45,23.49,36.753,1.63,76.75,30.81,1020.07,107.2,24.3,337,13.38,345.16,2,-9,9,-9,0.4,5.69,13.3,20.29,-9
AOML_Explorer,Ex0510E,66.118,7032005,2:49:43,26.133,-78.597,353.07,-9,1020.05,1017.38,23.43,23.44,36.739,1.62,76.85,30.81,1020.05,107.2,24.4,340,14.41,344.6,2,-9,9,-9,0.31,5.48,25.53,20.29,-9
AOML_Explorer,Ex0510E,66.12,7032005,2:52:16,26.128,-78.578,353.26,-9,1020.03,1017.38,23.38,23.41,36.73,1.65,77.02,30.82,1020.03,107.2,24.4,338,12.35,345.12,2,-9,9,-9,0.27,5.23,2.89,20.3,-9
AOML_Explorer,Ex0510E,66.121,7032005,2:54:49,26.123,-78.56,352.88,-9,1019.93,1017.12,23.36,23.43,36.736,1.65,77.24,30.82,1019.93,107,24.4,336,15.44,345.2,2,-9,9,-9,0.28,6.89,28.07,20.33,-9
AOML_Explorer,Ex0510E,66.123,7032005,2:57:22,26.118,-78.542,352.05,-9,1020.03,1017.4,23.36,23.44,36.73,1.65,77.42,30.82,1020.03,107,24.5,341,13.38,344.58,2,-9,9,-9,0.28,4.76,15.77,20.33,-9
AOML_Explorer,Ex0510E,66.125,7032005,2:59:55,26.113,-78.523,351.53,-9,1019.94,1017.37,23.37,23.48,36.721,1.6,77.46,30.82,1019.94,106.7,24.6,336,13.9,344.39,2,-9,9,-9,0.24,6,15.49,20.37,-9
AOML_Explorer,Ex0510E,66.135,7032005,3:14:01,26.085,-78.421,349.39,-9,1019.82,1017.12,23.45,23.52,36.687,1.64,76.51,30.85,1019.82,107.2,24.6,338,13.9,341.67,2,-9,9,-9,0.18,5.51,18.22,20.4,-9
AOML_Explorer,Ex0510E,66.137,7032005,3:16:34,26.08,-78.403,349.58,-9,1019.77,1017.12,23.44,23.51,36.685,1.62,77.22,30.86,1019.77,107.6,24.6,331,14.41,341.88,2,-9,9,-9,0.17,7.33,15.66,20.42,-9
AOML_Explorer,Ex0510E,66.138,7032005,3:19:07,26.075,-78.384,349.72,-9,1019.73,1017.1,23.44,23.49,36.689,1.64,77.07,30.87,1019.73,107.6,24.6,329,14.93,341.79,2,-9,9,-9,0.18,8.06,16.91,20.38,-9
AOML_Explorer,Ex0510E,66.14,7032005,3:21:40,26.07,-78.366,349.8,-9,1019.73,1017.11,23.42,23.48,36.679,1.61,76.66,30.87,1019.73,107.7,24.6,330,14.41,341.87,2,-9,9,-9,0.2,7.59,14.65,20.34,-9
AOML_Explorer,Ex0510E,66.142,7032005,3:24:13,26.064,-78.348,349.56,-9,1019.69,1017.38,23.4,23.47,36.681,1.62,77.26,30.87,1019.69,107.8,24.6,331,13.38,341.9,2,-9,9,-9,0.23,6.99,8.03,20.3,-9
AOML_Explorer,Ex0510E,66.144,7032005,3:26:46,26.059,-78.33,349.29,-9,1019.69,1017.12,23.4,23.51,36.729,1.63,77.23,30.87,1019.69,107.4,24.5,323,13.38,342.1,2,-9,9,-9,0.29,8.6,3.01,20.34,-9
AOML_Explorer,Ex0510E,66.147,7032005,3:31:52,26.049,-78.293,350.61,-9,1019.54,1017.09,23.34,23.28,36.771,1.64,77.1,30.87,1019.54,106.9,24.5,327,14.41,341.14,2,-9,9,-9,0.32,8.05,12.36,20.37,-9
AOML_Explorer,Ex0510E,66.149,7032005,3:34:25,26.044,-78.275,350.79,-9,1019.59,1017.12,23.25,23.21,36.788,1.62,77.31,30.87,1019.59,106.8,24.3,333,14.41,341.71,2,-9,9,-9,0.42,6.7,18.99,20.39,-9
AOML_Explorer,Ex0510E,66.154,7032005,3:42:04,26.03,-78.221,351.29,-9,1019.37,1017.11,23.89,24.24,36.427,1.66,77.15,30.86,1019.37,107,23.7,325,11.84,346.74,2,-9,9,-9,0.24,6.67,357.93,20.31,-9
AOML_Explorer,Ex0510E,66.156,7032005,3:44:37,26.025,-78.203,352.7,-9,1019.45,1017.14,24.06,24.31,36.45,1.66,77.28,30.86,1019.45,107.2,23.7,329,13.38,346.71,2,-9,9,-9,0.44,6.32,13.6,20.34,-9
AOML_Explorer,Ex0510E,66.158,7032005,3:47:10,26.02,-78.185,353.64,-9,1019.49,1017.12,24.13,24.32,36.449,1.63,77.04,30.85,1019.49,107.3,23.6,333,10.81,346.9,2,-9,9,-9,0.46,5,350,20.34,-9
AOML_Explorer,Ex0510E,66.16,7032005,3:49:43,26.015,-78.168,354.63,-9,1019.45,1017.13,24.16,24.33,36.441,1.62,76.81,30.85,1019.45,107.5,23.6,329,12.87,347.5,2,-9,9,-9,0.32,6.23,9.6,20.43,-9
AOML_Explorer,Ex0510E,66.161,7032005,3:52:16,26.01,-78.15,355.89,-9,1019.51,1016.84,24.18,24.35,36.437,1.64,76.33,30.84,1019.51,107.9,23.5,337,13.38,348.76,2,-9,9,-9,0.32,4.77,22.89,20.39,-9
AOML_Explorer,Ex0510E,66.163,7032005,3:54:49,26.005,-78.133,355.99,-9,1019.56,1016.84,24.2,24.36,36.441,1.62,76.93,30.84,1019.56,108.2,23.4,324,12.87,348.81,2,-9,9,-9,0.32,7.39,7.17,20.4,-9
AOML_Explorer,Ex0510E,66.165,7032005,3:57:22,26,-78.115,355.9,-9,1019.5,1017.11,24.21,24.36,36.44,1.64,77.31,30.84,1019.5,108.2,23.4,336,12.35,348.57,2,-9,9,-9,0.32,4.73,10.73,20.43,-9
AOML_Explorer,Ex0510E,66.167,7032005,3:59:55,25.995,-78.098,355.65,-9,1019.49,1017.14,24.22,24.39,36.439,1.64,77.18,30.83,1019.49,107.5,23.4,338,12.35,348.46,2,-9,9,-9,0.35,4.48,10.82,20.46,-9
AOML_Explorer,Ex0510E,66.176,7032005,4:14:01,25.968,-78.002,353.79,-9,1019.33,1016.82,24.21,24.39,36.415,1.64,77.24,30.87,1019.33,107.7,23,336,12.87,346.8,2,-9,9,-9,0.3,5.18,17.04,20.43,-9
AOML_Explorer,Ex0510E,66.178,7032005,4:16:34,25.963,-77.985,354.13,-9,1019.32,1016.85,24.25,24.41,36.404,1.63,77.17,30.87,1019.32,106.5,23,336,11.32,346.88,2,-9,9,-9,0.31,4.78,358.61,20.45,-9
AOML_Explorer,Ex0510E,66.18,7032005,4:19:07,25.958,-77.968,353.93,-9,1019.16,1016.85,24.27,24.43,36.394,1.63,77.26,30.87,1019.16,106.8,23,329,12.35,346.56,2,-9,9,-9,0.33,6.51,5.62,20.44,-9
AOML_Explorer,Ex0510E,66.182,7032005,4:21:40,25.953,-77.951,354.04,-9,1019.22,1016.59,24.28,24.46,36.396,1.65,77.31,30.88,1019.22,107,22.9,337,13.38,346.91,2,-9,9,-9,0.35,5.23,22.97,20.5,-9
AOML_Explorer,Ex0510E,66.183,7032005,4:24:13,25.949,-77.934,354.05,-9,1019.2,1016.85,24.3,24.44,36.413,1.64,77.18,30.88,1019.2,107,22.9,332,11.84,346.44,2,-9,9,-9,0.36,5.72,3.49,20.45,-9
AOML_Explorer,Ex0510E,66.185,7032005,4:26:46,25.944,-77.917,354.59,-9,1019.1,1016.85,24.31,24.42,36.405,1.64,77.36,30.88,1019.1,106.7,23,334,11.32,346.44,2,-9,9,-9,0.26,5.2,358.24,20.46,-9
AOML_Explorer,Ex0510E,66.187,7032005,4:29:19,25.939,-77.899,355.28,-9,1019.1,1016.83,24.29,24.42,36.406,1.61,77.81,30.87,1019.1,106.9,23,326,11.84,347.42,2,-9,9,-9,0.25,6.92,359.91,20.47,-9
AOML_Explorer,Ex0510E,66.189,7032005,4:31:52,25.935,-77.882,354.99,-9,1019.11,1016.58,24.28,24.41,36.411,1.63,77.03,30.88,1019.11,106.9,22.9,338,13.38,347.22,2,-9,9,-9,0.23,5.03,24.11,20.51,-9
AOML_Explorer,Ex0510E,66.191,7032005,4:34:25,25.93,-77.865,354.58,-9,1019.18,1016.85,24.28,24.41,36.42,1.65,77.76,30.87,1019.18,106.8,23,340,9.78,346.89,2,-9,9,-9,0.24,4.24,338.32,20.52,-9
AOML_Explorer,Ex0510E,66.192,7032005,4:36:58,25.925,-77.848,354.42,-9,1019.18,1016.84,24.28,24.41,36.429,1.64,77.47,30.87,1019.18,106.8,22.9,342,11.84,346.68,2,-9,9,-9,0.27,3.64,8.73,20.55,-9
AOML_Explorer,Ex0510E,66.194,7032005,4:39:31,25.92,-77.831,354.64,-9,1019.08,1016.57,24.28,24.42,36.438,1.64,76.95,30.88,1019.08,107,23,338,11.32,346.96,2,-9,9,-9,0.3,4.46,359.46,20.66,-9
AOML_Explorer,Ex0510E,66.196,7032005,4:42:04,25.916,-77.814,354.67,-9,1019.03,1016.61,24.28,24.42,36.445,1.64,76.92,30.87,1019.03,107,23,333,11.32,346.95,2,-9,9,-9,0.32,5.43,358.22,20.63,-9
AOML_Explorer,Ex0510E,66.198,7032005,4:44:37,25.911,-77.797,354.59,-9,1018.93,1016.57,24.28,24.4,36.448,1.63,77.45,30.87,1018.93,107.7,22.9,335,11.32,346.63,2,-9,9,-9,0.33,5.11,359.9,20.63,-9
AOML_Explorer,Ex0510E,66.199,7032005,4:47:10,25.906,-77.78,354.88,-9,1018.92,1016.3,24.28,24.39,36.449,1.65,77.02,30.87,1018.92,107.2,23,339,12.35,346.82,2,-9,9,-9,0.38,4.54,12.84,20.65,-9
AOML_Explorer,Ex0510E,66.201,7032005,4:49:43,25.901,-77.762,355.13,-9,1018.88,1016.6,24.27,24.37,36.456,1.63,77.21,30.86,1018.88,107.7,23,334,11.32,346.95,2,-9,9,-9,0.41,5.38,358.99,20.65,-9
AOML_Explorer,Ex0510E,66.203,7032005,4:52:16,25.896,-77.745,355.25,-9,1018.8,1016.57,24.25,24.37,36.453,1.65,77.17,30.86,1018.8,107.8,23.1,326,11.32,347.2,2,-9,9,-9,0.42,7,355.88,20.71,-9
AOML_Explorer,Ex0510E,66.205,7032005,4:54:49,25.891,-77.728,355.47,-9,1018.8,1016.32,24.23,24.37,36.459,1.66,77.19,30.86,1018.8,108.1,23.1,334,12.35,347.62,2,-9,9,-9,0.4,5.7,9.08,20.71,-9
AOML_Explorer,Ex0510E,66.207,7032005,4:57:22,25.886,-77.711,355.76,-9,1018.83,1016.29,24.24,24.37,36.466,1.65,77.26,30.86,1018.83,108.2,23.2,349,11.84,347.86,2,-9,9,-9,0.38,2.51,9.81,20.67,-9
AOML_Explorer,Ex0510E,66.22,7032005,5:16:34,25.844,-77.582,355.1,-9,1018.76,1016.31,24.16,24.23,36.518,1.64,77.17,30.88,1018.76,111.6,23.3,345,12.87,346.48,2,-9,9,-9,0.41,3.88,25.71,20.71,-9
AOML_Explorer,Ex0510E,66.222,7032005,5:19:07,25.838,-77.565,355.42,-9,1018.74,1016.3,24.12,24.15,36.521,1.61,77.37,30.88,1018.74,111.8,23.5,342,12.87,346.23,2,-9,9,-9,0.32,4.57,20.95,20.63,-9
AOML_Explorer,Ex0510E,66.223,7032005,5:21:40,25.831,-77.548,355.33,-9,1018.77,1016.29,24.06,24.05,36.537,1.64,77.29,30.88,1018.77,113.3,23.7,348,11.84,345.63,2,-9,9,-9,0.32,3.13,9.31,20.57,-9
AOML_Explorer,Ex0510E,66.225,7032005,5:24:13,25.825,-77.531,355.83,-9,1018.66,1016.32,23.99,23.62,36.676,1.65,76.99,30.88,1018.66,112.7,23.3,347,12.87,341.69,2,-9,9,-9,0.27,3.41,29.83,20.52,-9
AOML_Explorer,Ex0510E,66.227,7032005,5:26:46,25.819,-77.514,354.43,-9,1018.61,1016.31,23.68,23.59,36.69,1.63,77.08,30.87,1018.61,112.9,23.2,354,11.84,344.05,2,-9,9,-9,0.26,1.83,15.28,20.49,-9
AOML_Explorer,Ex0510E,66.229,7032005,5:29:19,25.812,-77.498,353.37,-9,1018.54,1015.81,23.56,23.52,36.696,1.61,77.61,30.87,1018.54,113.6,23,343,13.38,343.67,2,-9,9,-9,0.24,4.78,31.76,20.39,-9
AOML_Explorer,Ex0510E,66.23,7032005,5:31:52,25.806,-77.481,352.6,-9,1018.45,1016.07,23.47,23.53,36.69,1.65,77.3,30.86,1018.45,112.9,22.8,348,12.35,344.23,2,-9,9,-9,0.23,3.48,24.87,20.37,-9
AOML_Explorer,Ex0510E,66.232,7032005,5:34:25,25.8,-77.465,351.74,-9,1018.46,1016.03,23.46,23.47,36.72,1.63,77.01,30.86,1018.46,106.9,22.6,337,13.38,342.85,2,-9,9,-9,0.28,6.13,19.41,20.29,-9
AOML_Explorer,Ex0510E,66.234,7032005,5:36:58,25.796,-77.448,351.08,-9,1018.36,1016.05,23.45,23.42,36.757,1.63,77.71,30.85,1018.36,106.6,22.6,337,12.87,341.55,2,-9,9,-9,0.25,5.74,15.44,20.23,-9
AOML_Explorer,Ex0510E,66.236,7032005,5:39:31,25.792,-77.431,350.85,-9,1018.47,1016.05,23.37,23.24,36.835,1.64,76.77,30.85,1018.47,103.2,22.6,336,13.9,340.12,2,-9,9,-9,0.31,5.95,22.52,20.2,-9
AOML_Explorer,Ex0510E,66.238,7032005,5:42:04,25.789,-77.413,350.71,-9,1018.45,1016.03,23.26,23.32,36.789,1.6,77.51,30.85,1018.45,98.9,22.9,331,13.9,342.53,2,-9,9,-9,0.26,6.66,12.5,20.2,-9
AOML_Explorer,Ex0510E,66.239,7032005,5:44:37,25.786,-77.395,350.7,-9,1018.49,1016.04,23.25,23.46,36.717,1.63,77.69,30.85,1018.49,99.4,23,336,12.87,344.42,2,-9,9,-9,0.23,5.01,9.54,20.15,-9
AOML_Explorer,Ex0510E,66.241,7032005,5:47:10,25.783,-77.378,350.76,-9,1018.4,1015.78,23.35,23.6,36.63,1.61,77.62,30.84,1018.4,96.9,23.1,332,13.9,344.95,2,-9,9,-9,0.28,6.07,12.96,20.25,-9
AOML_Explorer,Ex0510E,66.245,7032005,5:52:16,25.779,-77.342,349.97,-9,1018.41,1016.03,23.87,24.2,36.5,1.63,77.23,30.83,1018.41,97.9,23.2,333,14.41,344.84,2,-9,9,-9,0.3,6.09,19.03,20.18,-9
AOML_Explorer,Ex0510E,66.246,7032005,5:54:49,25.777,-77.324,351.27,-9,1018.34,1015.8,24.03,24.25,36.482,1.63,77.61,30.83,1018.34,98.3,23.1,325,14.93,344.64,2,-9,9,-9,0.25,8.15,12.74,20.1,-9
AOML_Explorer,Ex0510E,66.248,7032005,5:57:22,25.775,-77.306,352.56,-9,1018.35,1015.79,24.09,24.27,36.459,1.64,77.46,30.82,1018.35,99,23,321,13.38,345.35,2,-9,9,-9,0.21,8.28,0.32,20.06,-9
AOML_Explorer,Ex0510E,66.25,7032005,5:59:55,25.772,-77.288,353.22,-9,1018.36,1015.8,24.13,24.26,36.451,1.65,77.61,30.82,1018.36,99.4,23.1,330,13.9,345.31,2,-9,9,-9,0.2,6.8,11.43,19.94,-9
AOML_Explorer,Ex0510E,66.26,7032005,6:14:01,25.747,-77.191,351.98,-9,1018.35,1016.02,24.07,24.18,36.453,1.64,77.41,30.85,1018.35,108.2,23.3,323,11.32,343.84,2,-9,9,-9,0.19,7.47,354.71,19.89,-9
AOML_Explorer,Ex0510E,66.262,7032005,6:16:34,25.742,-77.174,352.32,-9,1018.27,1015.76,24.06,24.18,36.459,1.63,77.39,30.85,1018.27,108.5,23.4,326,12.35,344.26,2,-9,9,-9,0.2,7.22,3.63,19.92,-9
AOML_Explorer,Ex0510E,66.263,7032005,6:19:07,25.737,-77.156,352.62,-9,1018.3,1015.77,24.06,24.17,36.463,1.64,77.49,30.85,1018.3,108.5,23.5,332,11.84,344.44,2,-9,9,-9,0.2,5.9,1.81,20,-9
AOML_Explorer,Ex0510E,66.265,7032005,6:21:40,25.731,-77.139,352.81,-9,1018.23,1015.76,24.06,24.16,36.476,1.64,77.13,30.86,1018.23,108.8,23.6,328,13.38,344.5,2,-9,9,-9,0.2,7.28,11.84,20.13,-9
AOML_Explorer,Ex0510E,66.267,7032005,6:24:13,25.726,-77.121,352.92,-9,1018.31,1016.03,24.04,24.12,36.489,1.63,77.28,30.86,1018.31,105.9,23.7,334,12.87,344.3,2,-9,9,-9,0.22,5.86,9.3,20.06,-9
AOML_Explorer,Ex0510E,66.269,7032005,6:26:46,25.722,-77.103,353.2,-9,1018.3,1015.78,24.02,24.1,36.503,1.64,77.22,30.86,1018.3,106.2,23.8,341,11.32,344.76,2,-9,9,-9,0.21,4.25,353.66,20.11,-9
AOML_Explorer,Ex0510E,66.27,7032005,6:29:19,25.717,-77.086,353.11,-9,1018.26,1016.02,23.99,24.08,36.516,1.62,77.13,30.85,1018.26,106.8,23.9,345,11.32,344.71,2,-9,9,-9,0.22,3.57,352.7,20.1,-9
AOML_Explorer,Ex0510E,66.272,7032005,6:31:52,25.712,-77.068,353.16,-9,1018.27,1016.02,23.98,24.06,36.526,1.65,77.14,30.85,1018.27,106.6,24,339,11.84,344.7,2,-9,9,-9,0.22,4.9,359.17,20.18,-9
AOML_Explorer,Ex0510E,66.274,7032005,6:34:25,25.708,-77.049,353.19,-9,1018.28,1015.77,23.96,24.04,36.544,1.6,77.08,30.85,1018.28,101.8,23.9,328,11.84,344.74,2,-9,9,-9,0.23,7.29,350.78,20.19,-9
AOML_Explorer,Ex0510E,66.276,7032005,6:36:58,25.705,-77.031,353.27,-9,1018.25,1015.77,23.95,24.03,36.559,1.65,77.15,30.84,1018.25,97.7,23.9,338,12.35,344.83,2,-9,9,-9,0.23,5.36,355.69,20.15,-9
AOML_Explorer,Ex0510E,66.277,7032005,6:39:31,25.703,-77.012,353.26,-9,1018.23,1015.79,23.94,24,36.575,1.61,77.31,30.84,1018.23,97.1,24,342,10.81,344.5,2,-9,9,-9,0.23,4.55,336.85,20.18,-9
AOML_Explorer,Ex0510E,66.279,7032005,6:42:04,25.702,-76.994,353.55,-9,1018.13,1015.51,23.91,23.84,36.625,1.6,77.45,30.84,1018.13,91.4,23.8,344,13.38,343.08,2,-9,9,-9,0.25,4.54,5.85,20.3,-9
AOML_Explorer,Ex0510E,66.281,7032005,6:44:37,25.702,-76.975,353.71,-9,1018.19,1015.76,23.81,23.83,36.607,1.63,77.47,30.83,1018.19,87.9,23.6,344,10.81,344.42,2,-9,9,-9,0.28,3.96,328.97,20.35,-9
AOML_Explorer,Ex0510E,66.283,7032005,6:47:10,25.703,-76.957,353.33,-9,1018.1,1015.79,23.74,23.89,36.592,1.62,77.37,30.83,1018.1,87.8,23.5,352,11.84,345.85,2,-9,9,-9,0.28,2.28,345.92,20.37,-9
AOML_Explorer,Ex0510E,66.285,7032005,6:49:43,25.703,-76.938,353.39,-9,1018.12,1015.79,23.77,23.93,36.586,1.63,77.24,30.83,1018.12,87.8,23.5,357,13.38,345.97,2,-9,9,-9,0.29,1.83,39.38,20.41,-9
AOML_Explorer,Ex0510E,66.286,7032005,6:52:16,25.704,-76.92,353.5,-9,1018.06,1015.78,23.82,23.97,36.57,1.67,77.47,30.82,1018.06,90.8,23.7,349,13.38,345.91,2,-9,9,-9,0.27,3.21,15.62,20.35,-9
AOML_Explorer,Ex0510E,66.288,7032005,6:54:49,25.704,-76.901,353.73,-9,1017.97,1015.51,23.85,23.96,36.57,1.62,77.78,30.82,1017.97,91.2,23.8,353,13.38,345.62,2,-9,9,-9,0.25,2.39,24.69,20.37,-9
AOML_Explorer,Ex0510E,66.29,7032005,6:57:22,25.703,-76.882,353.78,-9,1017.86,1015.48,23.87,23.88,36.592,1.47,77.84,30.81,1017.86,91.8,23.9,345,14.41,344.31,2,-9,9,-9,0.22,4.69,19.17,20.32,-9
AOML_Explorer,Ex0510E,66.292,7032005,6:59:55,25.703,-76.863,353.58,-9,1017.86,1015.23,23.83,23.64,36.675,1.65,77.16,30.81,1017.86,92,23.9,340,14.93,341.57,2,-9,9,-9,0.2,5.75,17.74,20.29,-9
AOML_Explorer,Ex0510E,66.301,7032005,7:14:01,25.698,-76.761,346.6,-9,1017.46,1014.68,23.13,23.23,36.814,1.63,77.66,30.85,1017.46,91.8,23.5,340,14.41,338.73,2,-9,9,-9,0.2,5.13,18.24,20.25,-9
AOML_Explorer,Ex0510E,66.303,7032005,7:16:34,25.697,-76.743,346.54,-9,1017.49,1014.7,23.16,23.26,36.778,1.62,77.16,30.86,1017.49,92.5,23.6,345,14.93,338.66,2,-9,9,-9,0.18,4.46,33.38,20.25,-9
AOML_Explorer,Ex0510E,66.305,7032005,7:19:07,25.696,-76.724,346.88,-9,1017.38,1014.68,23.2,23.28,36.782,1.63,77.32,30.86,1017.38,92.1,23.7,352,14.93,338.75,2,-9,9,-9,0.17,3.27,54.5,20.27,-9
AOML_Explorer,Ex0510E,66.307,7032005,7:21:40,25.695,-76.706,347.1,-9,1018.02,1014.67,23.22,23.27,36.789,1.58,77.16,30.86,1018.02,94.2,23.7,342,14.93,338.75,2,-9,9,-9,0.18,5.11,26.86,20.22,-9
AOML_Explorer,Ex0510E,66.308,7032005,7:24:13,25.694,-76.687,347.54,-9,1018.14,1014.97,23.22,23.27,36.787,1.58,77.12,30.86,1018.14,93.7,23.7,350,14.93,339.17,2,-9,9,-9,0.18,3.64,46.95,20.26,-9
AOML_Explorer,Ex0510E,66.31,7032005,7:26:46,25.693,-76.669,347.94,-9,1018.24,1015.23,23.21,23.21,36.832,1.6,77.69,30.86,1018.24,93.8,23.6,348,13.9,339.02,2,-9,9,-9,0.24,3.34,28.93,20.18,-9
AOML_Explorer,Ex0510E,66.312,7032005,7:29:19,25.691,-76.65,348.1,-9,1018.3,1015.22,23.19,23.23,36.814,1.55,77.05,30.85,1018.3,96.7,23.2,352,14.41,339.61,2,-9,9,-9,0.23,3.15,53.72,20.18,-9
AOML_Explorer,Ex0510E,66.314,7032005,7:31:52,25.689,-76.632,348.49,-9,1018.2,1014.99,23.15,23.22,36.836,1.6,76.85,30.84,1018.2,96.1,23.2,350,14.41,340.52,2,-9,9,-9,0.24,3.36,48.42,20.21,-9
AOML_Explorer,Ex0510E,66.316,7032005,7:34:25,25.687,-76.614,348.38,-9,1018.15,1014.97,23.16,23.24,36.838,1.57,76.65,30.84,1018.15,96.8,23.1,348,13.9,340.39,2,-9,9,-9,0.24,3.5,35.21,20.22,-9
AOML_Explorer,Ex0510E,66.317,7032005,7:36:58,25.686,-76.596,348.51,-9,1018.27,1014.96,23.16,23.26,36.86,1.57,76.94,30.83,1018.27,98.2,23,348,14.41,340.75,2,-9,9,-9,0.22,3.98,42.35,20.16,-9
AOML_Explorer,Ex0510E,66.319,7032005,7:39:31,25.684,-76.578,349.02,-9,1018.07,1014.99,23.2,23.23,36.848,1.54,77.53,30.82,1018.07,96.6,23,347,15.44,340.43,2,-9,9,-9,0.22,4.83,47.79,20.15,-9
AOML_Explorer,Ex0510E,66.321,7032005,7:42:04,25.682,-76.56,349.23,-9,1018.22,1015.24,23.19,23.24,36.819,1.58,76.97,30.82,1018.22,99,22.8,348,13.9,340.98,2,-9,9,-9,0.23,3.41,42.12,20.14,-9
AOML_Explorer,Ex0510E,66.323,7032005,7:44:37,25.678,-76.543,349.28,-9,1018.2,1015.23,23.17,23.22,36.876,1.58,77.08,30.81,1018.2,105,22.3,337,13.38,341.01,2,-9,9,-9,0.22,5.34,23.84,20.07,-9
AOML_Explorer,Ex0510E,66.324,7032005,7:47:10,25.673,-76.526,349.58,-9,1018.1,1014.97,23.18,23.2,36.883,1.57,76.69,30.8,1018.1,110.1,22.3,338,13.38,340.8,2,-9,9,-9,0.23,5.16,30.19,20.07,-9
AOML_Explorer,Ex0510E,66.326,7032005,7:49:43,25.667,-76.51,349.25,-9,1018.1,1014.97,23.16,23.18,36.876,1.57,77.18,30.79,1018.1,114.6,22.2,336,14.93,340.57,2,-9,9,-9,0.21,6.52,44.07,20.08,-9
AOML_Explorer,Ex0510E,66.328,7032005,7:52:16,25.66,-76.495,348.59,-9,1018.05,1015.21,23.14,23.19,36.875,1.56,77.12,30.78,1018.05,118,22.2,347,12.35,340.22,2,-9,9,-9,0.21,3.01,38.88,20.05,-9
AOML_Explorer,Ex0510E,66.33,7032005,7:54:49,25.653,-76.479,347.8,-9,1017.99,1014.97,23.13,23.18,36.874,1.57,77.07,30.77,1017.99,115.5,22.3,341,13.38,339.34,2,-9,9,-9,0.21,4.49,40.76,20.03,-9
AOML_Explorer,Ex0510E,66.332,7032005,7:57:22,25.646,-76.464,347.15,-9,1018.03,1014.66,23.13,23.17,36.866,1.56,77.22,30.76,1018.03,116.1,22.3,345,13.9,338.65,2,-9,9,-9,0.21,4.2,53.15,20.01,-9
AOML_Explorer,Ex0510E,66.333,7032005,7:59:55,25.639,-76.448,347.01,-9,1017.93,1014.67,23.12,23.16,36.863,1.57,77.12,30.75,1017.93,116.4,22.4,346,13.9,338.54,2,-9,9,-9,0.21,4.07,54.25,20.08,-9
AOML_Explorer,Ex0510E,66.343,7032005,8:14:01,25.6,-76.361,345.82,-9,1017.83,1014.68,23.09,23.12,36.836,1.63,76.97,30.76,1017.83,116.5,22.6,346,13.9,337.26,2,-9,9,-9,0.23,4.05,52.63,20.02,-9
AOML_Explorer,Ex0510E,66.345,7032005,8:16:34,25.593,-76.345,346.35,-9,1017.8,1014.66,23.08,23.16,36.845,1.63,76.79,30.76,1017.8,116.4,22.5,341,14.41,338.41,2,-9,9,-9,0.21,5.4,47.21,20.01,-9
AOML_Explorer,Ex0510E,66.347,7032005,8:19:07,25.586,-76.329,346.78,-9,1017.85,1014.67,23.09,23.19,36.881,1.62,76.97,30.75,1017.85,116.3,22.5,336,13.38,339.06,2,-9,9,-9,0.22,5.69,31.68,20.01,-9
AOML_Explorer,Ex0510E,66.348,7032005,8:21:40,25.579,-76.314,346.82,-9,1017.89,1014.67,23.13,23.21,36.885,1.63,76.99,30.75,1017.89,116.5,22.5,341,13.38,338.88,2,-9,9,-9,0.22,4.77,38.08,20.03,-9
AOML_Explorer,Ex0510E,66.35,7032005,8:24:13,25.572,-76.298,347,-9,1017.99,1014.96,23.15,23.23,36.889,1.63,77.27,30.74,1017.99,116.1,22.5,340,13.38,339.06,2,-9,9,-9,0.16,4.92,36.6,20.06,-9
AOML_Explorer,Ex0510E,66.352,7032005,8:26:46,25.565,-76.282,347.16,-9,1018.12,1014.95,23.16,23.22,36.893,1.65,77,30.74,1018.12,116.4,22.5,339,13.38,339.05,2,-9,9,-9,0.2,5.15,35.31,20.06,-9
AOML_Explorer,Ex0510E,66.354,7032005,8:29:19,25.558,-76.266,346.52,-9,1018.3,1015.51,23.17,23.2,36.888,1.63,77.14,30.73,1018.3,116.1,22.5,337,11.84,338.03,2,-9,9,-9,0.23,4.96,16.7,20.06,-9
AOML_Explorer,Ex0510E,66.355,7032005,8:31:52,25.551,-76.25,346.54,-9,1018.2,1015.51,23.16,23.18,36.878,1.65,76.98,30.72,1018.2,116.1,22.6,341,12.87,337.95,2,-9,9,-9,0.2,4.55,31.28,20.06,-9
AOML_Explorer,Ex0510E,66.357,7032005,8:34:25,25.544,-76.234,346.86,-9,1018.26,1015.5,23.13,23.19,36.881,1.64,77.17,30.71,1018.26,116.2,22.7,334,11.32,338.73,2,-9,9,-9,0.25,5.5,8.65,20.06,-9
AOML_Explorer,Ex0510E,66.359,7032005,8:36:58,25.537,-76.218,347.06,-9,1018.3,1015.54,23.13,23.2,36.894,1.62,77.25,30.71,1018.3,115.6,22.9,333,11.84,339.04,2,-9,9,-9,0.21,5.75,11.91,20.07,-9
AOML_Explorer,Ex0510E,66.361,7032005,8:39:31,25.529,-76.202,346.94,-9,1018.21,1015.22,23.14,23.19,36.9,1.64,76.5,30.7,1018.21,116.8,22.8,335,12.35,338.67,2,-9,9,-9,0.23,5.34,20.46,20.06,-9
AOML_Explorer,Ex0510E,66.363,7032005,8:42:04,25.522,-76.186,346.58,-9,1018.28,1015.51,23.14,23.19,36.879,1.63,77.42,30.69,1018.28,117.9,22.8,330,12.87,338.26,2,-9,9,-9,0.23,6.53,22.37,20.06,-9
AOML_Explorer,Ex0510E,66.364,7032005,8:44:37,25.514,-76.171,346.3,-9,1018.27,1015.51,23.13,23.22,36.894,1.63,76.95,30.68,1018.27,116.5,22.6,329,12.35,338.59,2,-9,9,-9,0.18,6.45,17.27,20.12,-9
AOML_Explorer,Ex0510E,66.366,7032005,8:47:10,25.507,-76.155,346.39,-9,1018.53,1015.51,23.15,23.26,36.884,1.63,76.48,30.68,1018.53,117.4,22.5,340,10.81,338.96,2,-9,9,-9,0.17,3.83,6.29,20.12,-9
AOML_Explorer,Ex0510E,66.368,7032005,8:49:43,25.5,-76.139,345.91,-9,1018.52,1015.5,23.17,23.27,36.885,1.62,77.19,30.67,1018.52,117,22.4,333,12.35,338.38,2,-9,9,-9,0.2,5.52,22.15,20.12,-9
AOML_Explorer,Ex0510E,66.37,7032005,8:52:16,25.493,-76.124,345.44,-9,1018.5,1015.24,23.2,23.27,36.891,1.6,76.95,30.66,1018.5,117.4,22.3,332,12.35,337.5,2,-9,9,-9,0.16,5.76,22.05,20.13,-9
AOML_Explorer,Ex0510E,66.371,7032005,8:54:49,25.486,-76.108,345.3,-9,1018.35,1015.5,23.21,23.26,36.899,1.62,77.19,30.65,1018.35,116.8,22.3,333,11.32,337.1,2,-9,9,-9,0.18,5.22,11.92,20.15,-9
AOML_Explorer,Ex0510E,66.373,7032005,8:57:22,25.478,-76.093,345.12,-9,1018.46,1015.52,23.2,23.24,36.897,1.63,76.23,30.64,1018.46,116.8,22.2,337,12.35,336.83,2,-9,9,-9,0.17,4.8,26.26,20.18,-9
AOML_Explorer,Ex0510E,66.375,7032005,8:59:55,25.471,-76.077,345.08,-9,1018.32,1015.52,23.19,23.32,36.889,1.62,75.75,30.64,1018.32,116.9,22.1,337,11.32,337.96,2,-9,9,-9,0.18,4.39,14.99,20.15,-9
AOML_Explorer,Ex0510E,66.385,7032005,9:14:01,25.43,-75.993,346.26,-9,1018.46,1015.54,23.2,23.24,36.892,1.64,77.24,30.64,1018.46,124,22.2,334,11.32,338.02,2,-9,9,-9,0.18,5.16,19.79,20.14,-9